Powrót do katalogu

STARLINK-36390

AktywnyŁącznośćSSO
NORAD 67886·PAYLOAD·🇺🇸 United States

Wystrzelony Feb 21, 2026 z Vandenberg Space Force Base

Loading…

Następne Przeloty (najbliższe 24 godziny)

TLE

ŚwieżeSource: CelesTrak SupGP

Epoka: Sep 14, 2026, 21:39 UTC

1 67886C 26035H   26257.90256944 -.00051766  00000+0 -16071-2 0  2572
2 67886  97.2844 189.7718 0001803  94.4071 181.6803 15.33461061    17

Śledź STARLINK-36390 w czasie rzeczywistym z AllMySat

Download on the App Store